Latest Weather Observations for Christmas Creek

IDW60801

Issued at 7:35 am WST Tuesday 2 September 2014 (issued every 30 minutes, with the page automatically refreshed every 10 minutes)

About weather observations | Map of weather stations | Latest weather observations for WA | Other Formats
Station Details ID: 505049 Name: CHRISTMAS CREEK Lat: -22.36 Lon: 119.65 Height: 437.21 m
Data from the previous 72 hours. | See also: Recent months for locations in Western Australia
Date/Time
WST
Temp
°C
App
Temp
°C
Dew
Point
Rel
Hum
%
Delta-T
°C
Wind Press
QNH
hPa
Press
MSL
hPa
Rain
since 9 am
mm
Dir
 
Spd
km/h
Gust
km/h
Spd
kts
Gust
kts
02/07:30am 21.1 17.7 -1.9 21 10.1 NNE 6 9 3 5 1019.3 1017.5 0.0
02/07:28am 21.0 18.0 -1.9 21 10.0 NNE 4 9 2 5 1019.3 1017.5 0.0
02/07:00am 16.0 12.4 -1.8 29 7.5 NNE 7 7 4 4 1019.1 1017.3 0.0
02/06:30am 13.2 10.1 -2.5 33 6.3 NNE 4 6 2 3 1019.1 1017.3 0.0
02/06:00am 13.0 9.9 -2.7 33 6.3 N 4 6 2 3 1018.9 1017.1 0.0
02/05:30am 14.2 10.5 -3.1 30 6.9 N 7 11 4 6 1018.5 1016.7 0.0
02/05:00am 13.7 10.2 -3.1 31 6.7 N 6 9 3 5 1018.1 1016.3 0.0
02/04:30am 14.5 10.8 -3.3 29 7.1 NNW 7 9 4 5 1017.9 1016.2 0.0
02/04:00am 15.1 10.9 -3.6 27 7.5 N 9 9 5 5 1017.8 1016.1 0.0
02/03:30am 15.6 12.4 -3.9 26 7.8 N 4 6 2 3 1017.9 1016.2 0.0
02/03:00am 16.6 11.6 -4.0 24 8.3 NE 13 15 7 8 1018.1 1016.3 0.0
02/02:30am 15.5 11.7 -4.0 26 7.8 NNE 7 11 4 6 1017.8 1016.1 0.0
02/02:00am 16.6 13.3 -4.0 24 8.3 NE 4 6 2 3 1017.9 1016.2 0.0
02/01:30am 18.0 14.3 -4.5 21 9.1 ENE 6 7 3 4 1018.2 1016.4 0.0
02/01:00am 18.9 15.2 -4.4 20 9.5 NW 6 11 3 6 1018.1 1016.3 0.0
02/12:30am 21.7 15.9 -4.6 17 11.0 NNW 17 22 9 12 1018.1 1016.3 0.0
02/12:00am 20.6 14.3 -5.7 16 10.7 NNW 19 20 10 11 1018.4 1016.6 0.0
 
Date/Time
WST
Temp
°C
App
Temp
°C
Dew
Point
Rel
Hum
%
Delta-T
°C
Wind Press
QNH
hPa
Press
MSL
hPa
Rain
since 9 am
mm
Dir
 
Spd
km/h
Gust
km/h
Spd
kts
Gust
kts
01/11:30pm 19.8 14.7 -5.3 18 10.2 N 13 15 7 8 1018.3 1016.5 0.0
01/11:00pm 21.3 15.8 -5.7 16 11.0 N 15 17 8 9 1018.3 1016.5 0.0
01/10:30pm 20.5 15.0 -5.1 17 10.5 N 15 15 8 8 1018.5 1016.7 0.0
01/10:00pm 19.8 15.5 -4.4 19 10.0 N 9 11 5 6 1018.6 1016.8 0.0
01/09:30pm 20.9 16.2 -4.8 17 10.7 N 11 13 6 7 1018.6 1016.8 0.0
01/09:00pm 22.0 16.9 -5.0 16 11.2 N 13 15 7 8 1018.3 1016.5 0.0
01/08:30pm 21.7 16.7 -4.5 17 11.0 N 13 15 7 8 1018.2 1016.4 0.0
01/08:00pm 23.1 18.8 -4.7 15 11.8 NNE 9 11 5 6 1017.8 1016.1 0.0
01/07:30pm 23.8 18.8 -4.7 14 12.2 N 13 13 7 7 1017.4 1015.7 0.0
01/07:00pm 24.6 19.9 -5.3 13 12.7 N 11 13 6 7 1017.0 1015.2 0.0
01/06:30pm 25.9 21.5 -5.5 12 13.4 N 9 11 5 6 1016.7 1014.9 0.0
01/06:00pm 28.7 24.3 -6.3 10 15.1 N 9 11 5 6 1016.3 1014.5 0.0
01/05:30pm 30.6 26.1 -7.2 8 16.4 N 9 13 5 7 1016.0 1014.2 0.0
01/05:00pm 31.6 26.6 -7.8 7 17.0 NNE 11 17 6 9 1015.8 1014.0 0.0
01/04:30pm 32.0 26.6 -8.2 7 17.3 N 13 19 7 10 1015.5 1013.8 0.0
01/04:00pm 32.0 26.6 -7.9 7 17.3 NNW 13 24 7 13 1015.4 1013.7 0.0
01/03:30pm 32.3 27.7 -8.1 7 17.5 NNE 9 19 5 10 1015.4 1013.7 0.0
01/03:00pm 32.4 27.8 -7.6 7 17.4 NNE 9 26 5 14 1015.3 1013.6 0.0
01/02:30pm 32.4 26.3 -7.6 7 17.4 NNE 17 26 9 14 1015.7 1013.9 0.0
01/02:00pm 32.0 26.7 -7.2 7 17.1 NNW 13 24 7 13 1016.1 1014.3 0.0
01/01:30pm 31.5 26.9 -7.9 7 17.0 NNE 9 22 5 12 1016.4 1014.6 0.0
01/01:00pm 31.4 27.0 -6.2 8 16.6 S 9 15 5 8 1016.9 1015.1 0.0
01/12:30pm 31.6 27.8 -5.8 8 16.7 SSE 6 15 3 8 1017.1 1015.3 0.0
01/12:00pm 30.5 26.7 -5.8 9 16.0 W 6 15 3 8 1017.7 1016.0 0.0
01/11:30am 30.3 25.8 -6.5 9 16.1 S 9 15 5 8 1018.2 1016.4 0.0
01/11:00am 28.8 24.4 -5.8 10 15.1 SE 9 17 5 9 1018.5 1016.7 0.0
01/10:30am 27.1 22.8 -4.5 12 13.9 SE 9 15 5 8 1019.0 1017.2 0.0
01/10:00am 24.2 20.4 -3.5 15 12.1 SE 7 13 4 7 1019.2 1017.4 0.0
01/09:30am 21.7 17.8 -1.2 21 10.3 SSE 9 13 5 7 1019.2 1017.4 0.0
01/09:00am 19.4 15.8 -2.2 23 9.3 S 7 13 4 7 1019.1 1017.3 0.0
01/08:30am 17.8 14.0 -3.4 23 8.8 SSW 7 13 4 7 1018.7 1016.9 0.0
01/08:00am 17.9 14.5 -5.0 20 9.2 WNW 4 6 2 3 1018.1 1016.3 0.0
01/07:30am 16.4 13.6 -3.1 26 8.0 ENE 2 4 1 2 1017.9 1016.9 0.0
01/07:00am 13.7 11.0 -2.6 32 6.6 NNE 2 4 1 2 1017.6 1016.6 0.0
01/06:39am 11.7 8.6 -2.8 36 5.7 NNE 4 6 2 3 1017.5 1016.5 0.0
01/06:30am 11.3 7.8 -3.0 36 5.6 SE 6 7 3 4 1017.4 1016.4 0.0
01/06:22am 10.5 6.8 -3.1 38 5.3 SE 7 9 4 5 1017.3 1016.3 0.0
01/06:00am 12.3 9.1 -3.1 34 6.1 NW 4 7 2 4 1016.9 1015.9 0.0
01/05:30am 12.7 9.9 -3.3 32 6.3 N 2 4 1 2 1016.7 1015.7 0.0
01/05:00am 13.9 11.2 -2.3 32 6.6 W 2 4 1 2 1016.7 1015.7 0.0
01/04:30am 14.3 9.7 -4.4 27 7.3 S 11 26 6 14 1016.6 1015.6 0.0
01/04:00am 16.2 12.5 -4.8 23 8.3 NNW 6 7 3 4 1016.2 1015.1 0.0
01/03:30am 16.1 12.4 -4.7 23 8.2 NNW 6 7 3 4 1016.1 1015.0 0.0
01/03:00am 15.5 11.6 -4.8 24 8.0 N 7 9 4 5 1016.3 1015.2 0.0
01/02:30am 17.5 14.5 -5.2 21 9.0 NE 2 6 1 3 1016.2 1015.1 0.0
01/02:00am 17.6 12.5 -5.2 20 9.1 N 13 13 7 7 1016.3 1015.2 0.0
01/01:30am 17.4 14.4 -5.1 21 9.0 NNE 2 4 1 2 1016.6 1015.6 0.0
01/01:00am 19.9 15.9 -5.9 17 10.3 NW 7 9 4 5 1016.7 1015.7 0.0
01/12:30am 21.1 15.2 -6.0 15 11.0 NW 17 24 9 13 1016.7 1015.7 0.0
01/12:00am 19.7 14.5 -5.8 17 10.2 NNW 13 17 7 9 1016.6 1015.6 0.0
 
Date/Time
WST
Temp
°C
App
Temp
°C
Dew
Point
Rel
Hum
%
Delta-T
°C
Wind Press
QNH
hPa
Press
MSL
hPa
Rain
since 9 am
mm
Dir
 
Spd
km/h
Gust
km/h
Spd
kts
Gust
kts
31/11:30pm 19.0 13.8 -5.8 18 9.9 N 13 17 7 9 1016.9 1015.9 0.0
31/11:00pm 20.5 14.6 -6.1 16 10.7 N 17 20 9 11 1016.8 1015.8 0.0
31/10:30pm 19.2 14.1 -5.6 18 9.9 N 13 17 7 9 1016.8 1015.8 0.0
31/10:00pm 19.3 14.6 -5.2 18 9.9 N 11 13 6 7 1016.9 1015.9 0.0
31/09:30pm 20.8 15.6 -5.7 16 10.8 NNW 13 13 7 7 1017.0 1016.0 0.0
31/09:00pm 21.4 16.2 -5.9 15 11.1 NNW 13 15 7 8 1016.9 1015.9 0.0
31/08:30pm 22.1 16.9 -5.8 15 11.5 NW 13 15 7 8 1016.8 1015.8 0.0
31/08:00pm 23.4 18.2 -6.2 13 12.2 NW 13 15 7 8 1016.6 1015.6 0.0
31/07:30pm 23.8 18.3 -5.7 13 12.3 NW 15 17 8 9 1016.3 1015.2 0.0
31/07:00pm 24.7 19.5 -5.7 13 12.8 NW 13 15 7 8 1016.0 1014.9 0.0
31/06:30pm 25.5 20.7 -6.3 12 13.4 NW 11 13 6 7 1015.7 1014.6 0.0
31/06:00pm 27.7 23.1 -7.4 9 14.7 NW 9 11 5 6 1015.3 1014.3 0.0
31/05:30pm 29.9 24.9 -7.9 8 16.1 NNW 11 17 6 9 1015.2 1014.2 0.0
31/05:00pm 30.7 25.6 -8.8 7 16.6 NNW 11 17 6 9 1015.0 1014.0 0.0
31/04:30pm 31.0 25.6 -8.5 7 16.8 NNW 13 19 7 10 1014.9 1013.9 0.0
31/04:00pm 31.5 25.7 -8.6 7 17.1 NNW 15 26 8 14 1014.7 1013.7 0.0
31/03:30pm 31.3 25.1 -8.4 7 16.9 NNW 17 26 9 14 1014.7 1013.7 0.0
31/03:00pm 31.9 27.3 -8.2 7 17.2 NNW 9 17 5 9 1014.9 1013.9 0.0
31/02:30pm 31.3 25.5 -8.1 7 16.9 NW 15 20 8 11 1015.1 1014.1 0.0
31/02:00pm 31.0 25.2 -8.5 7 16.8 N 15 24 8 13 1015.3 1014.3 0.0
31/01:30pm 30.8 25.8 -8.0 7 16.6 NW 11 26 6 14 1016.0 1014.9 0.0
31/01:00pm 29.8 25.6 -8.1 8 16.0 ENE 7 19 4 10 1016.4 1015.3 0.0
31/12:30pm 29.5 23.8 -7.9 8 15.8 NNE 15 26 8 14 1016.8 1015.8 0.0
31/12:00pm 29.3 25.1 -7.5 8 15.6 W 7 19 4 10 1017.2 1016.2 0.0
31/11:30am 29.1 25.0 -6.3 9 15.4 SSW 7 15 4 8 1017.7 1016.7 0.0
31/11:00am 27.5 23.5 -6.1 10 14.4 S 7 13 4 7 1018.4 1017.3 0.0
31/10:30am 26.2 22.4 -3.7 13 13.3 SSE 7 13 4 7 1018.8 1017.8 0.0
31/10:00am 24.4 20.1 -4.8 14 12.5 SSE 9 15 5 8 1019.1 1018.1 0.0
31/09:30am 23.3 18.6 -4.9 15 11.9 S 11 15 6 8 1019.2 1018.2 0.0
31/09:00am 22.6 18.2 -6.0 14 11.7 S 9 13 5 7 1019.2 1018.2 0.0
31/08:30am 20.2 16.1 -6.4 16 10.6 SSW 7 11 4 6 1019.1 1018.1 0.0
31/08:09am 19.0 15.1 -6.2 17 10.0 WSW 6 7 3 4 1018.8 1017.8 0.0
31/08:00am 18.4 14.9 -6.0 18 9.6 SW 4 6 2 3 1018.8 1017.8 0.0
31/07:50am 17.9 14.5 -5.7 19 9.3 SW 4 6 2 3 1018.7 1017.7 0.0
31/07:30am 16.8 13.8 -4.8 22 8.6 SSW 2 6 1 3 1018.5 1017.4 0.0
31/07:00am 14.1 11.2 -4.0 28 7.1 W 2 4 1 2 1018.2 1017.1 0.0
31/06:30am 11.7 8.4 -4.8 31 6.2 W 4 6 2 3 1017.7 1016.7 0.0
31/06:00am 11.0 7.7 -4.8 32 5.9 NW 4 6 2 3 1017.4 1016.4 0.0
31/05:30am 11.7 7.9 -5.2 30 6.3 NNW 6 7 3 4 1017.1 1016.1 0.0
31/05:00am 12.0 9.0 -5.0 30 6.4 NNW 2 6 1 3 1017.0 1016.0 0.0
31/04:30am 12.7 9.7 -5.6 27 6.8 NE 2 4 1 2 1016.8 1015.8 0.0
31/04:00am 13.5 10.5 -5.5 26 7.2 NNE 2 2 1 1 1016.7 1015.7 0.0
31/03:30am 13.5 10.4 -5.7 26 7.2 ENE 2 2 1 1 1016.7 1015.7 0.0
31/03:00am 14.3 11.3 -5.5 25 7.5 WSW 2 4 1 2 1016.6 1015.6 0.0
31/02:30am 16.4 12.9 -6.5 20 8.8 WNW 4 7 2 4 1016.7 1015.7 0.0
31/02:00am 18.1 13.9 -7.2 17 9.7 WNW 7 11 4 6 1017.0 1016.0 0.0
31/01:30am 17.9 14.0 -6.6 18 9.5 WNW 6 11 3 6 1017.3 1016.3 0.0
31/01:00am 18.9 14.0 -7.0 16 10.0 NW 11 15 6 8 1017.3 1016.3 0.0
31/12:30am 18.6 13.2 -8.0 15 10.1 N 13 19 7 10 1017.5 1016.5 0.0
31/12:00am 18.5 13.6 -7.5 16 9.9 N 11 13 6 7 1017.6 1016.6 0.0
 
Date/Time
WST
Temp
°C
App
Temp
°C
Dew
Point
Rel
Hum
%
Delta-T
°C
Wind Press
QNH
hPa
Press
MSL
hPa
Rain
since 9 am
mm
Dir
 
Spd
km/h
Gust
km/h
Spd
kts
Gust
kts
30/11:30pm 19.4 14.1 -7.7 15 10.4 N 13 17 7 9 1017.6 1016.6 0.0
30/11:00pm 19.6 13.9 -7.5 15 10.5 N 15 17 8 9 1017.8 1016.8 0.0
30/10:30pm 19.9 14.6 -7.5 15 10.7 N 13 17 7 9 1018.1 1017.0 0.0
30/10:00pm 20.4 14.7 -7.6 14 10.9 N 15 17 8 9 1018.1 1017.0 0.0
30/09:30pm 19.8 14.2 -6.6 16 10.4 N 15 17 8 9 1018.3 1017.2 0.0
30/09:00pm 19.3 14.1 -5.7 18 10.0 N 13 15 7 8 1018.5 1017.4 0.0
30/08:30pm 19.8 15.4 -5.7 17 10.3 N 9 11 5 6 1018.6 1017.6 0.0
30/08:00pm 20.9 17.1 -5.4 16 10.7 NNW 6 6 3 3 1018.5 1017.4 0.0
30/07:30pm 22.3 19.7 -5.4 15 11.5 CALM 0 2 0 1 1018.2 1017.1 0.0
30/07:00pm 23.9 20.3 -7.3 12 12.7 S 4 6 2 3 1017.8 1016.8 0.0
30/06:30pm 24.8 20.2 -7.5 11 13.2 N 9 11 5 6 1017.6 1016.6 0.0
30/06:00pm 27.5 22.9 -8.2 9 14.7 N 9 9 5 5 1017.3 1016.3 0.0
30/05:30pm 29.8 25.5 -10.9 6 16.4 NNW 6 7 3 4 1017.1 1016.1 0.0
30/05:00pm 30.4 26.1 -10.8 6 16.7 NNW 6 13 3 7 1016.9 1015.9 0.0
30/04:30pm 30.5 25.3 -10.8 6 16.8 NNW 11 19 6 10 1016.7 1015.7 0.0
30/04:00pm 30.5 25.3 -10.5 6 16.7 N 11 19 6 10 1016.5 1015.5 0.0
30/03:30pm 30.7 26.8 -10.6 6 16.9 NE 4 7 2 4 1016.4 1015.3 0.0
30/03:00pm 30.5 24.2 -10.9 6 16.8 N 17 26 9 14 1016.4 1015.3 0.0
30/02:30pm 30.4 24.5 -10.4 6 16.7 NNW 15 24 8 13 1016.6 1015.6 0.0
30/02:00pm 30.1 24.2 -10.6 6 16.5 N 15 28 8 15 1016.8 1015.8 0.0
30/01:30pm 29.7 24.5 -10.6 6 16.3 N 11 22 6 12 1017.1 1016.1 0.0
30/01:00pm 29.7 24.5 -10.2 7 16.2 N 11 20 6 11 1017.6 1016.6 0.0
30/12:30pm 29.4 23.1 -10.4 7 16.1 NNW 17 24 9 13 1017.9 1016.9 0.0
30/12:00pm 29.4 23.9 -10.3 7 16.1 NNW 13 26 7 14 1018.6 1017.6 0.0
30/11:30am 28.3 23.5 -10.7 7 15.5 NW 9 24 5 13 1019.0 1018.0 0.0
30/11:00am 28.3 23.6 -9.8 7 15.4 N 9 19 5 10 1019.4 1018.4 0.0
30/10:30am 27.8 22.6 -10.5 7 15.2 N 11 20 6 11 1019.7 1018.7 0.0
30/10:00am 27.5 22.7 -10.0 8 15.0 NNW 9 20 5 11 1020.1 1019.1 0.0
30/09:30am 25.6 22.4 -7.0 11 13.5 SE 2 6 1 3 1020.3 1019.3 0.0
30/09:00am 23.3 19.4 -6.5 13 12.2 SSE 6 9 3 5 1020.4 1019.4 0.0
30/08:30am 21.3 18.2 -6.1 15 11.1 S 2 6 1 3 1020.3 1019.3 0.0
30/08:00am 19.6 16.4 -7.2 15 10.4 WSW 2 6 1 3 1020.2 1019.2 0.0

Other Formats:

Comma delimited format used in spreadsheet applications
http://www.bom.gov.au/fwo/IDW60801/IDW60801.99737.axf

JavaScript Object Notation format (JSON) in row-major order
http://www.bom.gov.au/fwo/IDW60801/IDW60801.99737.json